Location: Dehesa de la Cepeda
(40.6574°N, 4.3013°W)
Time: 16:30:40
(UTC+00:00)

Hubble Space Telescope - Visible Passes

Search period start: 26 September 2020 00:00
Search period end: 06 October 2020 00:00
Orbit: 536 x 540 km, 28.5° (Epoch: 25 September)

Date Brightness Start Highest point End Pass type
(mag) Time Alt. Az. Time Alt. Az. Time Alt. Az.
28 Sep 3.3 04:09:43 11° SSE 04:09:43 11° SSE 04:10:32 10° SSE visible
29 Sep 3.4 03:59:40 11° SSE 03:59:40 11° SSE 04:00:10 10° SE visible
29 Sep 3.0 05:36:30 10° SW 05:38:49 15° S 05:41:09 10° SSE visible
30 Sep 3.0 05:25:45 10° SW 05:27:59 14° S 05:30:12 10° SSE visible
01 Oct 3.0 05:15:05 10° SW 05:17:08 13° S 05:19:09 10° SSE visible
02 Oct 3.0 05:04:51 11° SSW 05:06:16 12° S 05:08:00 10° SSE visible
03 Oct 3.1 04:54:52 11° SSW 04:55:24 11° SSW 04:56:39 10° S visible
